Stations météo

réclame
Mon MeteoGroup
Brest, France (7110): Température de l'air & dewpoint: 19.09.2018 09:00:00 - 25.09.2018 09:00:00 (CEST)Brest, France (7110): Température de l'air 5cm: 19.09.2018 09:00:00 - 25.09.2018 09:00:00 (CEST)Brest, France (7110): Température de l'air -20cm & Température de l'air -100cm: 19.09.2018 09:00:00 - 25.09.2018 09:00:00 (CEST)Brest, France (7110): Vitesse du vent & gusts: 19.09.2018 09:00:00 - 25.09.2018 09:00:00 (CEST)Brest, France (7110): Direction du vent: 19.09.2018 09:00:00 - 25.09.2018 09:00:00 (CEST)Brest, France (7110): reduced air pressure: 19.09.2018 09:00:00 - 25.09.2018 09:00:00 (CEST)Brest, France (7110): visibility: 19.09.2018 09:00:00 - 25.09.2018 09:00:00 (CEST)Brest, France (7110): Ensoleillement: 19.09.2018 09:00:00 - 25.09.2018 09:00:00 (CEST)Brest, France (7110): Quantités de précipitations: 19.09.2018 09:00:00 - 25.09.2018 09:00:00 (CEST)
Date & Time tt [°C] td [°C] tt 5cm [°C] tt -20cm [°C] tt -100cm [°C] ff [km/h] ff [knt] fx [km/h] fx [knt] dd ppp [hPa] vv [km] sd [min] rr [mm]
25.09.2018 09:00:00 7,2 5,2 1,2 15,4 16,7 9 5 10 6 E 1036,9 53 27 0,0
25.09.2018 08:00:00 6,3 2,9 2,0 15,5 16,7 8 5 15 8 ENE 1036,7 58 0 0,0
25.09.2018 07:00:00 8,3 4,7 5,8 15,6 16,7 12 7 22 12 E 1036,3 56 0 0,0
25.09.2018 06:00:00 7,9 4,8 3,8 15,6 16,7 13 7 16 9 E 1036,6 45 0 0,0
25.09.2018 05:00:00 8,1 5,4 4,8 15,7 16,7 6 3 11 6 ENE 1036,9 60 0 0,0
25.09.2018 04:00:00 7,7 5,3 4,5 15,8 16,7 8 5 16 9 ENE 1037,2 60 0 0,0
25.09.2018 03:00:00 8,2 5,1 6,2 15,9 16,7 13 7 19 10 ENE 1037,6 60 0 0,0
25.09.2018 02:00:00 9,4 5,8 4,2 16,0 16,7 14 8 21 11 E 1037,2 60 0 0,0
25.09.2018 01:00:00 7,4 5,2 4,5 16,1 16,7 10 5 16 9 NE 1038,2 37 0 0,0
25.09.2018 00:00:00 7,5 5,5 4,3 16,1 16,7 11 6 16 9 NE 1038,0 52 0 0,0
24.09.2018 23:00:00 7,7 5,5 3,2 16,1 16,7 10 5 14 8 NE 1038,1 60 0 0,0
24.09.2018 22:00:00 8,7 5,8 4,1 16,1 16,7 9 5 15 8 NE 1038,0 60 0 0,0
24.09.2018 21:00:00 10,0 6,2 5,7 16,1 16,6 11 6 19 11 NNE 1037,8 60 0 0,0
24.09.2018 20:00:00 12,2 6,5 9,9 16,1 16,7 13 7 29 15 NNE 1037,3 60 60 0,0
24.09.2018 19:00:00 14,1 7,2 13,4 16,0 16,7 17 9 35 19 NE 1037,1 41 60 0,0
24.09.2018 18:00:00 14,8 7,3 17,4 15,9 16,7 21 11 35 19 NE 1036,8 28 56 0,0
24.09.2018 17:00:00 15,5 7,5 18,6 15,8 16,7 22 12 34 18 NE 1037,1 33 58 0,0
24.09.2018 16:00:00 15,1 6,9 17,7 15,8 16,7 22 12 37 20 NE 1037,6 19 46 0,0
24.09.2018 15:00:00 15,7 6,4 18,9 15,7 16,7 19 10 28 15 NE 1037,8 44 49 0,0
24.09.2018 14:00:00 15,7 8,0 20,1 15,7 16,7 18 10 33 18 NE 1038,2 46 53 0,0
24.09.2018 13:00:00 15,6 7,1 14,7 15,7 16,7 19 10 31 17 NE 1038,4 35 58 0,0
24.09.2018 12:00:00 13,9 6,3 16,1 15,8 16,7 18 10 32 17 NE 1038,7 60 50 0,0
24.09.2018 11:00:00 14,2 7,9 14,4 15,9 16,7 13 7 23 12 NE 1038,7 51 60 0,0
24.09.2018 10:00:00 12,2 7,7 4,1 16,0 16,7 6 3 10 6 N 1038,1 54 60 0,0
24.09.2018 09:00:00 7,9 6,7 2,2 16,1 16,7 7 4 13 7 N 1037,6 53 25 0,0
24.09.2018 08:00:00 7,4 5,5 - - - 8 4 18 10 N 1036,7 50 - -
24.09.2018 07:00:00 8,4 5,3 4,4 16,3 16,7 14 8 23 13 NNE 1036,2 58 0 0,0
24.09.2018 06:00:00 8,0 4,8 1,1 16,4 16,8 10 6 15 8 N 1036,2 48 0 0,0
24.09.2018 05:00:00 6,4 4,2 1,2 16,5 16,8 9 5 14 8 N 1036,1 60 0 0,0
24.09.2018 04:00:00 7,7 3,9 1,7 16,6 16,7 8 4 17 9 N 1035,9 60 0 0,0
24.09.2018 03:00:00 8,4 3,6 - - - 8 4 18 10 N 1035,3 60 - 0,0
24.09.2018 02:00:00 9,4 4,2 6,1 16,8 16,8 13 7 24 13 N 1034,6 60 0 0,0
24.09.2018 01:00:00 9,4 4,0 6,5 16,9 16,8 12 7 21 11 N 1034,5 60 0 0,0
24.09.2018 00:00:00 9,7 4,5 6,4 16,9 16,8 10 6 18 10 N 1033,8 60 0 0,0
23.09.2018 23:00:00 10,2 4,3 7,1 17,0 16,7 11 6 22 12 N 1033,1 60 0 0,0
23.09.2018 22:00:00 10,3 4,6 7,5 17,0 16,8 11 6 24 13 N 1032,3 60 0 0,0
23.09.2018 21:00:00 10,6 5,4 8,1 17,1 16,7 15 8 40 22 N 1030,7 60 0 0,0
23.09.2018 20:00:00 12,4 7,5 10,8 17,1 16,8 19 11 35 19 N 1029,6 56 30 0,0
23.09.2018 19:00:00 13,3 7,3 12,8 17,1 16,7 22 12 45 24 N 1028,4 42 45 0,0
23.09.2018 18:00:00 13,4 7,8 14,3 17,1 16,8 21 11 50 27 NNE 1027,5 52 56 0,0
23.09.2018 17:00:00 12,7 8,8 13,1 17,1 16,8 31 17 53 28 N 1026,0 39 22 0,0
23.09.2018 16:00:00 13,0 8,9 13,5 17,1 16,8 30 16 48 26 N 1025,0 19 0 0,0
23.09.2018 15:00:00 13,3 10,1 14,0 17,1 16,8 25 14 53 28 N 1023,4 20 6 0,0
23.09.2018 14:00:00 14,5 10,9 14,6 17,1 16,8 30 16 54 29 NNE 1021,6 30 17 0,0
23.09.2018 13:00:00 13,6 12,5 14,3 17,1 16,8 29 15 47 26 N 1020,5 3,2 0 0,4
23.09.2018 12:00:00 13,7 12,9 14,3 17,1 16,8 18 10 31 17 NNW 1018,7 2,3 0 0,2
23.09.2018 11:00:00 14,3 12,5 15,0 17,1 16,8 23 13 43 23 NNW 1017,2 2,1 0 0,6
23.09.2018 10:00:00 17,3 16,7 17,3 17,0 16,8 23 12 44 24 W 1015,4 2,7 0 0,0
23.09.2018 09:00:00 17,4 16,9 17,3 17,0 16,8 28 15 49 27 W 1015,1 6 0 0,2
23.09.2018 08:00:00 17,5 16,9 17,4 17,0 16,8 28 15 49 26 WSW 1014,8 12 0 0,2
23.09.2018 07:00:00 17,5 17,0 17,4 17,0 16,8 29 16 46 25 WSW 1015,2 3,8 0 0,0
23.09.2018 06:00:00 17,6 17,1 17,4 17,0 16,8 27 15 44 24 WSW 1015,3 2,9 0 0,2
23.09.2018 05:00:00 17,8 17,3 17,6 17,0 16,8 27 15 48 26 WSW 1015,5 2,8 0 0,2
23.09.2018 04:00:00 17,8 17,3 17,7 16,9 16,8 29 16 47 25 WSW 1015,9 3,6 0 0,2
23.09.2018 03:00:00 17,9 17,4 17,7 16,9 16,8 30 16 50 27 WSW 1016,2 3,1 0 0,4
23.09.2018 02:00:00 17,9 17,4 17,8 16,9 16,8 30 16 48 26 WSW 1016,4 3,2 0 0,2
23.09.2018 01:00:00 18,0 17,5 17,9 16,9 16,8 30 16 55 30 WSW 1016,3 3,0 0 0,2
23.09.2018 00:00:00 18,0 17,5 17,9 16,8 16,8 29 16 51 27 WSW 1016,0 2,5 0 0,2
22.09.2018 23:00:00 18,0 17,5 17,8 16,8 16,8 31 17 50 27 WSW 1016,0 0,8 0 0,2
22.09.2018 22:00:00 17,9 17,4 17,8 16,8 16,8 31 17 53 29 WSW 1015,8 0,6 0 0,0
22.09.2018 21:00:00 18,1 17,6 18,0 16,7 16,8 34 18 55 30 WSW 1015,4 2,0 0 0,0
22.09.2018 20:00:00 18,2 17,7 18,1 16,7 16,8 34 18 55 30 WSW 1015,1 3,1 0 0,4
22.09.2018 19:00:00 18,1 17,6 18,1 16,6 16,8 35 19 55 30 WSW 1014,7 2,7 0 0,2
22.09.2018 18:00:00 18,1 17,6 18,1 16,6 16,8 33 18 56 30 WSW 1014,5 1,8 0 0,0
22.09.2018 17:00:00 18,1 17,6 18,1 16,5 16,8 38 20 67 36 WSW 1014,4 2,1 0 0,4
22.09.2018 16:00:00 18,0 17,5 17,8 16,5 16,8 41 22 65 35 SW 1014,5 1,5 0 0,2
22.09.2018 15:00:00 17,7 17,2 16,8 16,5 16,8 40 22 74 40 SW 1014,5 1,6 0 1,6
22.09.2018 14:00:00 16,5 16,0 14,8 16,5 16,8 35 19 61 33 S 1015,0 2,8 0 2,7
22.09.2018 13:00:00 14,5 13,9 13,9 16,5 16,8 34 18 59 32 S 1016,1 1,9 0 0,8
22.09.2018 12:00:00 13,8 12,9 13,4 16,6 16,8 39 21 57 31 S 1017,0 2,6 0 0,8
22.09.2018 11:00:00 13,2 11,8 12,3 16,6 16,8 31 17 49 26 S 1018,2 10 0 0,2
22.09.2018 10:00:00 12,3 11,2 11,8 16,7 16,8 15 8 26 14 SSE 1019,2 3,0 0 0,8
22.09.2018 09:00:00 12,0 10,7 11,3 16,7 16,8 13 7 19 11 SSE 1020,1 4,1 0 0,8
22.09.2018 08:00:00 11,9 9,6 11,3 16,8 16,8 10 5 16 9 SE 1020,5 20 0 0,0
22.09.2018 07:00:00 12,1 10,2 11,4 16,8 16,8 9 5 18 10 SSE 1020,8 42 0 0,0
22.09.2018 06:00:00 12,2 9,8 11,4 16,8 16,8 10 5 15 8 SSE 1021,5 34 0 0,0
22.09.2018 05:00:00 12,0 10,2 11,0 16,9 16,8 10 5 14 7 S 1022,5 49 0 0,0
22.09.2018 04:00:00 11,7 9,8 9,9 16,9 16,8 8 5 12 6 S 1022,9 45 0 0,0
22.09.2018 03:00:00 11,2 9,3 9,0 17,0 16,8 8 5 12 6 S 1022,9 59 0 0,0
22.09.2018 02:00:00 10,8 8,9 8,6 17,1 16,8 6 3 10 5 SSW 1023,2 58 0 0,0
22.09.2018 01:00:00 10,7 8,8 7,2 17,1 16,8 8 5 9 5 SSW 1023,7 59 0 0,0
22.09.2018 00:00:00 11,6 8,6 9,5 17,1 16,8 5 3 9 5 SW 1023,7 59 0 0,0
21.09.2018 23:00:00 11,8 9,0 9,3 17,2 16,9 8 4 9 5 WSW 1023,4 57 0 0,0
21.09.2018 22:00:00 12,4 9,4 9,0 17,2 16,8 8 5 15 8 W 1023,6 46 0 0,0
21.09.2018 21:00:00 11,6 8,8 7,7 17,2 16,8 7 4 10 5 SW 1022,6 57 0 0,0
21.09.2018 20:00:00 12,5 8,8 10,3 17,2 16,8 6 3 21 11 WSW 1022,2 58 0 0,0
21.09.2018 19:00:00 14,3 7,3 14,4 17,2 16,8 10 6 29 16 W 1021,7 60 20 0,0
21.09.2018 18:00:00 14,9 8,6 15,8 17,1 16,8 15 8 37 20 W 1021,1 44 41 0,0
21.09.2018 17:00:00 16,4 6,8 19,9 17,1 16,8 20 11 39 21 W 1021,0 24 38 0,0
21.09.2018 16:00:00 16,7 8,1 19,0 17,0 16,8 23 12 39 21 W 1020,8 24 51 0,0
21.09.2018 15:00:00 15,2 7,5 18,9 17,0 16,8 18 10 38 21 WNW 1020,3 38 31 0,0
21.09.2018 14:00:00 16,1 7,0 13,5 17,0 16,8 22 12 47 26 WNW 1019,7 39 40 0,2
21.09.2018 13:00:00 15,4 6,9 14,8 17,1 16,8 23 12 44 24 WNW 1019,0 21 30 0,0
21.09.2018 12:00:00 14,6 7,2 16,0 17,1 16,8 21 12 37 20 W 1018,4 38 52 0,0
21.09.2018 11:00:00 14,5 8,0 15,1 17,2 16,8 14 7 28 15 W 1017,6 20 44 0,0
21.09.2018 10:00:00 13,4 9,1 9,8 17,3 16,8 9 5 16 9 W 1016,6 36 55 0,0
21.09.2018 09:00:00 11,3 8,0 7,7 17,3 16,8 8 4 16 9 WNW 1015,7 48 10 0,0
21.09.2018 08:00:00 10,9 7,4 8,2 17,4 16,8 9 5 24 13 WNW 1014,5 51 0 0,0
21.09.2018 07:00:00 11,4 7,1 8,2 17,5 16,8 13 7 29 16 WNW 1013,5 53 0 0,0
21.09.2018 06:00:00 12,3 8,0 9,7 17,6 16,8 15 8 29 16 WNW 1012,3 55 0 0,0
21.09.2018 05:00:00 12,6 8,7 10,3 17,6 16,8 16 9 39 21 WNW 1011,4 20 0 0,0
21.09.2018 04:00:00 13,3 8,6 11,0 17,6 16,8 22 12 40 22 WNW 1010,6 41 0 0,0
21.09.2018 03:00:00 13,8 9,8 12,1 17,7 16,8 20 11 43 23 W 1009,5 19 0 0,0
21.09.2018 02:00:00 14,1 10,9 13,3 17,7 16,8 21 11 51 28 W 1008,7 20 0 0,0
21.09.2018 01:00:00 15,3 13,3 15,0 17,7 16,8 29 16 100 54 WNW 1007,3 13 0 2,8
21.09.2018 00:00:00 17,5 16,9 17,2 17,7 16,8 46 25 71 38 SSW 1005,8 4,1 0 7,7
20.09.2018 23:00:00 17,5 16,7 17,2 17,8 16,8 44 24 69 37 SSW 1007,1 4,0 0 6,7
20.09.2018 22:00:00 17,8 16,3 17,2 17,7 16,8 40 21 67 36 SSW 1008,2 6 0 0,2
20.09.2018 21:00:00 18,0 16,0 17,8 17,8 16,8 40 22 62 33 SSW 1008,9 11 0 0,0
20.09.2018 20:00:00 18,0 16,0 17,7 17,8 16,8 41 22 63 34 SSW 1009,8 12 0 0,0
20.09.2018 19:00:00 18,3 16,1 18,1 17,7 16,8 44 24 69 38 SSW 1010,3 13 0 0,0
20.09.2018 18:00:00 18,5 16,1 18,6 17,7 16,8 40 22 65 35 SSW 1011,0 13 0 0,0
20.09.2018 17:00:00 18,7 16,3 18,8 17,7 16,8 37 20 62 33 SSW 1012,0 13 0 0,0
20.09.2018 16:00:00 19,1 16,0 19,9 17,6 16,8 35 19 66 36 SSW 1012,8 15 0 0,0
20.09.2018 15:00:00 19,8 16,1 21,6 17,5 16,8 43 23 64 34 SSW 1013,2 17 3 0,0
20.09.2018 14:00:00 19,5 15,8 20,8 17,5 16,8 39 21 78 42 SSW 1014,0 17 12 0,0
20.09.2018 13:00:00 20,2 15,6 20,0 17,5 16,8 40 21 56 30 SSW 1014,3 14 23 0,0
20.09.2018 12:00:00 18,7 15,6 19,2 17,5 16,8 34 18 57 31 SSW 1015,0 15 0 0,0
20.09.2018 11:00:00 18,3 15,7 18,2 17,5 16,8 35 19 52 28 SSW 1015,2 14 0 0,0
20.09.2018 10:00:00 17,7 15,5 17,0 17,6 16,8 32 17 48 26 SSW 1015,4 13 0 0,0
20.09.2018 09:00:00 17,0 15,3 16,5 17,6 16,8 28 15 42 23 SSW 1015,8 12 0 0,0
20.09.2018 08:00:00 16,7 15,1 16,4 17,6 16,8 22 12 40 22 SSW 1015,7 3,0 0 0,0
20.09.2018 07:00:00 16,8 15,3 16,5 17,6 16,7 24 13 42 23 SSW 1016,0 9 0 0,0
20.09.2018 06:00:00 16,9 15,4 16,5 17,7 16,8 27 14 44 24 SSW 1016,3 10 0 0,0
20.09.2018 05:00:00 16,8 15,5 16,2 17,7 16,8 26 14 41 22 SSW 1016,4 9 0 0,0
20.09.2018 04:00:00 16,8 15,5 16,2 17,7 16,8 27 15 42 23 SSW 1016,7 10 0 0,0
20.09.2018 03:00:00 16,6 15,3 15,9 17,8 16,8 24 13 40 22 SSW 1017,2 10 0 0,0
20.09.2018 02:00:00 16,4 15,1 15,6 17,8 16,8 29 16 44 24 SSW 1017,4 9 0 0,0
20.09.2018 01:00:00 16,2 15,1 14,8 17,8 16,7 17 9 28 15 SSW 1017,6 9 0 0,0
20.09.2018 00:00:00 16,1 15,0 15,0 17,9 16,8 18 10 32 18 SSW 1017,9 9 0 0,0
19.09.2018 23:00:00 16,4 15,3 15,4 17,9 16,8 20 11 31 17 SSW 1018,3 10 0 0,0
19.09.2018 22:00:00 17,1 15,6 16,5 17,9 16,8 19 11 36 19 SW 1018,2 9 0 0,0
19.09.2018 21:00:00 17,5 16,0 17,0 17,8 16,8 19 10 37 20 SW 1018,1 11 0 0,0
19.09.2018 20:00:00 18,0 15,4 17,2 17,8 16,7 22 12 44 24 SW 1017,9 13 28 0,0
19.09.2018 19:00:00 18,7 15,8 19,1 17,8 16,7 30 16 50 27 SW 1017,9 15 2 0,0
19.09.2018 18:00:00 19,5 16,0 20,3 17,7 16,7 31 17 48 26 SW 1017,6 17 6 0,0
19.09.2018 17:00:00 19,4 16,1 20,8 17,7 16,7 35 19 54 29 SW 1017,5 17 - 0,0
19.09.2018 16:00:00 19,8 16,1 21,8 17,6 16,7 34 18 60 33 SW 1017,6 15 15 0,0
19.09.2018 15:00:00 20,1 16,1 20,7 17,6 16,7 35 19 55 30 SW 1017,6 16 6 0,0
19.09.2018 14:00:00 20,3 16,1 22,5 17,5 16,7 33 18 61 33 SW 1017,3 19 12 0,0
19.09.2018 13:00:00 19,6 16,1 20,2 17,5 16,7 34 18 53 29 SSW 1017,3 17 - 0,0
19.09.2018 12:00:00 18,8 15,8 18,9 17,5 16,7 31 17 50 27 SW 1017,0 15 0 0,0
19.09.2018 11:00:00 18,2 16,9 18,4 17,5 16,7 31 17 54 29 SSW 1016,5 14 0 0,0
19.09.2018 10:00:00 17,8 17,0 17,9 17,6 16,7 29 16 45 24 SW 1016,2 14 - 0,0
19.09.2018 09:00:00 17,4 16,8 17,2 17,6 16,7 29 16 45 24 SSW 1015,7 12 - 0,0

tt = Température de l'air
td = dewpoint
tt 5cm = Température de l'air 5cm
tt -20cm = Température de l'air -20cm
tt -100cm = Température de l'air -100cm
ff = Vitesse du vent
fx = gusts
dd = Direction du vent
ppp = reduced air pressure
vv = visibility
sd = Ensoleillement
rr = Quantités de précipitations

stations d'obs. à proximité